| time (UTC) | temp F | wind direction | speed MPH | gust MPH | rain 1hr in | rain 24hr in | rain mn in | humidity % | barometer mb |
| 20260906152503 | 77 | 45 | 0.0 | 1.0 | 0.00 | 0.43 | 0.00 | 88 | 1014.0 |
| 20260906152003 | 77 | 224 | 1.0 | 3.0 | 0.00 | 0.43 | 0.00 | 86 | 1014.0 |
| 20260906151503 | 77 | 138 | 1.0 | 2.0 | 0.00 | 0.43 | 0.00 | 87 | 1014.2 |
| 20260906151003 | 77 | 183 | 0.0 | 2.0 | 0.00 | 0.43 | 0.00 | 87 | 1014.1 |
| 20260906150502 | 77 | 314 | 1.0 | 2.0 | 0.00 | 0.43 | 0.00 | 87 | 1014.1 |
| 20260906150002 | 77 | 147 | 1.0 | 3.0 | 0.00 | 0.43 | 0.00 | 88 | 1014.0 |
| 20260906145503 | 77 | 100 | 1.0 | 1.0 | 0.00 | 0.43 | 0.00 | 89 | 1013.9 |
| 20260906145003 | 76 | 233 | 1.0 | 2.0 | 0.00 | 0.43 | 0.00 | 88 | 1013.9 |
| 20260906144502 | 76 | 74 | 0.0 | 2.0 | 0.00 | 0.43 | 0.00 | 90 | 1013.8 |
| 20260906144003 | 76 | 61 | 0.0 | 1.0 | 0.00 | 0.43 | 0.00 | 91 | 1013.7 |
| 20260906143004 | 76 | 336 | 0.0 | 1.0 | 0.00 | 0.43 | 0.00 | 89 | 1013.9 |
| 20260906142502 | 76 | 50 | 0.0 | 1.0 | 0.00 | 0.43 | 0.00 | 90 | 1013.9 |
| 20260906142003 | 76 | 25 | 1.0 | 1.0 | 0.00 | 0.43 | 0.00 | 90 | 1013.8 |
| 20260906141502 | 76 | 0 | 1.0 | 2.0 | 0.00 | 0.43 | 0.00 | 91 | 1013.7 |
| 20260906141003 | 76 | 199 | 0.0 | 1.0 | 0.00 | 0.43 | 0.00 | 92 | 1013.7 |
| 20260906140503 | 76 | 184 | 1.0 | 2.0 | 0.00 | 0.43 | 0.00 | 92 | 1013.6 |
| 20260906140003 | 75 | 32 | 1.0 | 1.0 | 0.00 | 0.43 | 0.00 | 94 | 1013.5 |
| 20260906135002 | 74 | 350 | 0.0 | 1.0 | 0.00 | 0.43 | 0.00 | 95 | 1013.3 |
| 20260906134502 | 74 | 70 | 1.0 | 2.0 | 0.00 | 0.43 | 0.00 | 96 | 1013.3 |
| 20260906133502 | 73 | 14 | 0.0 | 1.0 | 0.00 | 0.43 | 0.00 | 99 | 1013.3 |
| 20260906133002 | 73 | 93 | 0.0 | 1.0 | 0.00 | 0.43 | 0.00 | 99 | 1013.2 |
| 20260906132502 | 73 | 13 | 0.0 | 2.0 | 0.00 | 0.43 | 0.00 | 99 | 1013.1 |
| 20260906132003 | 73 | 216 | 1.0 | 1.0 | 0.00 | 0.43 | 0.00 | 100 | 1013.1 |
| 20260906131503 | 73 | 202 | 0.0 | 1.0 | 0.00 | 0.43 | 0.00 | 100 | 1013.1 |
| 20260906131004 | 73 | 81 | 0.0 | 0.0 | 0.00 | 0.43 | 0.00 | 100 | 1013.1 |
| 20260906130503 | 72 | 81 | 0.0 | 1.0 | 0.00 | 0.43 | 0.00 | 100 | 1013.1 |
| 20260906130002 | 72 | 169 | 0.0 | 1.0 | 0.00 | 0.43 | 0.00 | 100 | 1013.2 |
| 20260906125503 | 72 | 128 | 0.0 | 1.0 | 0.00 | 0.43 | 0.00 | 100 | 1013.3 |
| 20260906125003 | 72 | 15 | 1.0 | 1.0 | 0.00 | 0.43 | 0.00 | 100 | 1013.3 |
| 20260906124503 | 72 | 88 | 0.0 | 1.0 | 0.00 | 0.43 | 0.00 | 100 | 1013.2 |
| 20260906124003 | 72 | 93 | 0.0 | 0.0 | 0.00 | 0.43 | 0.00 | 100 | 1013.1 |
| 20260906123503 | 72 | 153 | 0.0 | 2.0 | 0.00 | 0.43 | 0.00 | 100 | 1013.1 |
| 20260906123002 | 72 | 172 | 1.0 | 2.0 | 0.00 | 0.43 | 0.00 | 100 | 1013.2 |
| 20260906122503 | 72 | 158 | 0.0 | 1.0 | 0.00 | 0.43 | 0.00 | 100 | 1013.2 |
| 20260906122003 | 72 | 255 | 0.0 | 1.0 | 0.00 | 0.43 | 0.00 | 100 | 1013.2 |
| 20260906121003 | 72 | 185 | 1.0 | 1.0 | 0.00 | 0.43 | 0.00 | 100 | 1013.1 |
| 20260906120503 | 72 | 68 | 0.0 | 1.0 | 0.00 | 0.43 | 0.00 | 100 | 1013.2 |
| 20260906120002 | 72 | 81 | 0.0 | 1.0 | 0.00 | 0.43 | 0.00 | 100 | 1013.1 |
| 20260906115502 | 72 | 63 | 0.0 | 2.0 | 0.00 | 0.43 | 0.00 | 100 | 1013.1 |
| 20260906115003 | 72 | 62 | 0.0 | 1.0 | 0.00 | 0.43 | 0.00 | 100 | 1013.1 |
| 20260906114504 | 72 | 26 | 0.0 | 1.0 | 0.00 | 0.43 | 0.00 | 100 | 1013.0 |
| 20260906114002 | 72 | 76 | 0.0 | 1.0 | 0.00 | 0.43 | 0.00 | 100 | 1012.9 |
| 20260906113503 | 72 | 94 | 0.0 | 0.0 | 0.00 | 0.43 | 0.00 | 100 | 1012.9 |
| 20260906113002 | 72 | 94 | 0.0 | 1.0 | 0.00 | 0.43 | 0.00 | 100 | 1012.8 |
| 20260906112002 | 71 | 226 | 0.0 | 1.0 | 0.00 | 0.43 | 0.00 | 100 | 1012.8 |
| 20260906111504 | 71 | 202 | 0.0 | 1.0 | 0.00 | 0.43 | 0.00 | 100 | 1012.8 |
| 20260906111002 | 71 | 179 | 0.0 | 1.0 | 0.00 | 0.43 | 0.00 | 100 | 1012.7 |
| 20260906110503 | 71 | 137 | 0.0 | 1.0 | 0.00 | 0.43 | 0.00 | 100 | 1012.5 |
| 20260906110002 | 71 | 118 | 0.0 | 1.0 | 0.00 | 0.43 | 0.00 | 100 | 1012.6 |
| 20260906105503 | 71 | 136 | 0.0 | 1.0 | 0.00 | 0.43 | 0.00 | 100 | 1012.7 |
| 20260906105003 | 71 | 72 | 0.0 | 1.0 | 0.00 | 0.43 | 0.00 | 100 | 1012.6 |
| 20260906104504 | 71 | 4 | 0.0 | 0.0 | 0.00 | 0.43 | 0.00 | 100 | 1012.5 |
| 20260906104003 | 71 | 78 | 0.0 | 0.0 | 0.00 | 0.43 | 0.00 | 100 | 1012.5 |
| 20260906103003 | 71 | 69 | 0.0 | 0.0 | 0.00 | 0.43 | 0.00 | 100 | 1012.2 |
| 20260906102503 | 71 | 69 | 0.0 | 1.0 | 0.00 | 0.43 | 0.00 | 100 | 1012.2 |
| 20260906102003 | 71 | 99 | 0.0 | 0.0 | 0.00 | 0.43 | 0.00 | 100 | 1012.1 |
| 20260906101505 | 72 | 99 | 0.0 | 0.0 | 0.00 | 0.43 | 0.00 | 100 | 1012.0 |
| 20260906100503 | 72 | 125 | 0.0 | 1.0 | 0.00 | 0.43 | 0.00 | 100 | 1011.9 |
| 20260906095502 | 72 | 274 | 1.0 | 1.0 | 0.00 | 0.43 | 0.00 | 100 | 1011.7 |
| 20260906095004 | 72 | 75 | 0.0 | 1.0 | 0.00 | 0.43 | 0.00 | 100 | 1011.7 |
| 20260906094003 | 72 | 40 | 0.0 | 1.0 | 0.00 | 0.43 | 0.00 | 100 | 1011.6 |
| 20260906093503 | 72 | 158 | 0.0 | 1.0 | 0.00 | 0.43 | 0.00 | 100 | 1011.5 |
| 20260906093004 | 72 | 198 | 0.0 | 0.0 | 0.00 | 0.43 | 0.00 | 100 | 1011.5 |
| 20260906092503 | 72 | 99 | 0.0 | 0.0 | 0.00 | 0.43 | 0.00 | 100 | 1011.5 |
| 20260906092003 | 72 | 99 | 0.0 | 1.0 | 0.00 | 0.43 | 0.00 | 100 | 1011.4 |
| 20260906091502 | 72 | 185 | 0.0 | 1.0 | 0.00 | 0.43 | 0.00 | 100 | 1011.4 |
| 20260906091002 | 72 | 264 | 0.0 | 2.0 | 0.00 | 0.43 | 0.00 | 100 | 1011.3 |
| 20260906090502 | 72 | 194 | 0.0 | 2.0 | 0.00 | 0.43 | 0.00 | 100 | 1011.3 |
| 20260906090002 | 72 | 9 | 0.0 | 1.0 | 0.00 | 0.43 | 0.00 | 100 | 1011.2 |
| 20260906085503 | 72 | 251 | 0.0 | 1.0 | 0.00 | 0.43 | 0.00 | 100 | 1011.1 |
| 20260906085004 | 72 | 172 | 0.0 | 0.0 | 0.00 | 0.43 | 0.00 | 100 | 1011.1 |
| 20260906084503 | 72 | 174 | 0.0 | 1.0 | 0.00 | 0.43 | 0.00 | 100 | 1011.1 |
| 20260906084003 | 72 | 194 | 0.0 | 1.0 | 0.00 | 0.43 | 0.00 | 100 | 1011.2 |
| 20260906083002 | 72 | 81 | 0.0 | 1.0 | 0.00 | 0.43 | 0.00 | 100 | 1011.2 |
| 20260906082502 | 72 | 180 | 0.0 | 1.0 | 0.00 | 0.43 | 0.00 | 100 | 1011.2 |
| 20260906082002 | 72 | 42 | 0.0 | 1.0 | 0.00 | 0.43 | 0.00 | 100 | 1011.3 |
| 20260906081502 | 72 | 177 | 0.0 | 0.0 | 0.00 | 0.43 | 0.00 | 100 | 1011.2 |
| 20260906081003 | 72 | 177 | 0.0 | 1.0 | 0.00 | 0.43 | 0.00 | 100 | 1011.1 |
| 20260906080503 | 72 | 39 | 0.0 | 1.0 | 0.00 | 0.43 | 0.00 | 100 | 1011.1 |
| 20260906080002 | 72 | 13 | 0.0 | 1.0 | 0.00 | 0.43 | 0.00 | 100 | 1011.0 |
| 20260906075504 | 72 | 134 | 1.0 | 1.0 | 0.00 | 0.43 | 0.00 | 100 | 1011.0 |
| 20260906075003 | 72 | 51 | 0.0 | 1.0 | 0.00 | 0.43 | 0.00 | 100 | 1011.0 |
| 20260906074502 | 72 | 205 | 1.0 | 1.0 | 0.00 | 0.43 | 0.00 | 100 | 1011.0 |
| 20260906074002 | 72 | 91 | 0.0 | 1.0 | 0.00 | 0.43 | 0.00 | 100 | 1010.9 |
| 20260906073502 | 72 | 39 | 1.0 | 1.0 | 0.00 | 0.43 | 0.00 | 100 | 1010.9 |
| 20260906073003 | 72 | 218 | 0.0 | 1.0 | 0.00 | 0.43 | 0.00 | 100 | 1010.8 |
| 20260906072503 | 72 | 194 | 0.0 | 1.0 | 0.00 | 0.43 | 0.00 | 100 | 1010.8 |
| 20260906072004 | 72 | 233 | 0.0 | 0.0 | 0.00 | 0.43 | 0.00 | 100 | 1010.7 |
| 20260906071502 | 72 | 245 | 0.0 | 1.0 | 0.00 | 0.43 | 0.00 | 100 | 1010.7 |
| 20260906071003 | 72 | 206 | 1.0 | 1.0 | 0.00 | 0.43 | 0.00 | 100 | 1010.7 |
| 20260906070503 | 72 | 224 | 0.0 | 1.0 | 0.00 | 0.43 | 0.00 | 100 | 1010.7 |
| 20260906070004 | 72 | 73 | 0.0 | 0.0 | 0.00 | 0.43 | 0.00 | 100 | 1010.7 |
| 20260906065003 | 71 | 63 | 0.0 | 1.0 | 0.00 | 0.43 | 0.00 | 100 | 1010.8 |
| 20260906064503 | 71 | 19 | 0.0 | 1.0 | 0.00 | 0.43 | 0.00 | 100 | 1010.9 |
| 20260906064003 | 71 | 285 | 0.0 | 0.0 | 0.00 | 0.43 | 0.00 | 100 | 1010.9 |
| 20260906063504 | 72 | 307 | 0.0 | 1.0 | 0.00 | 0.43 | 0.00 | 100 | 1011.0 |
| 20260906063003 | 72 | 348 | 0.0 | 1.0 | 0.00 | 0.43 | 0.00 | 100 | 1011.0 |
| 20260906062503 | 72 | 181 | 0.0 | 0.0 | 0.00 | 0.43 | 0.00 | 100 | 1011.0 |
| 20260906062004 | 72 | 54 | 0.0 | 0.0 | 0.00 | 0.43 | 0.00 | 100 | 1011.0 |
| 20260906061502 | 72 | 54 | 0.0 | 1.0 | 0.00 | 0.43 | 0.00 | 100 | 1011.0 |
| 20260906061002 | 72 | 75 | 0.0 | 1.0 | 0.00 | 0.43 | 0.00 | 100 | 1011.1 |
| 20260906060002 | 72 | 238 | 0.0 | 1.0 | 0.00 | 0.43 | 0.00 | 100 | 1011.1 |
| 20260906055502 | 72 | 315 | 0.0 | 0.0 | 0.00 | 0.43 | 0.00 | 100 | 1011.1 |
| 20260906055003 | 72 | 315 | 0.0 | 1.0 | 0.00 | 0.43 | 0.00 | 100 | 1011.2 |
| 20260906054503 | 72 | 197 | 0.0 | 1.0 | 0.00 | 0.43 | 0.00 | 100 | 1011.1 |
| 20260906054003 | 72 | 175 | 0.0 | 1.0 | 0.00 | 0.43 | 0.00 | 100 | 1011.1 |
| 20260906053503 | 72 | 231 | 0.0 | 0.0 | 0.00 | 0.43 | 0.00 | 100 | 1011.3 |
| 20260906053002 | 72 | 231 | 0.0 | 0.0 | 0.00 | 0.43 | 0.00 | 99 | 1011.3 |
| 20260906052503 | 72 | 208 | 0.0 | 0.0 | 0.00 | 0.43 | 0.00 | 99 | 1011.4 |
| 20260906052002 | 72 | 207 | 0.0 | 0.0 | 0.00 | 0.43 | 0.00 | 99 | 1011.4 |
| 20260906051502 | 72 | 207 | 0.0 | 1.0 | 0.00 | 0.43 | 0.00 | 99 | 1011.3 |
| 20260906051002 | 72 | 115 | 0.0 | 1.0 | 0.00 | 0.43 | 0.00 | 99 | 1011.3 |
| 20260906050003 | 72 | 170 | 0.0 | 0.0 | 0.00 | 0.43 | 0.00 | 99 | 1011.4 |
| 20260906045504 | 72 | 200 | 0.0 | 0.0 | 0.00 | 0.43 | 0.00 | 99 | 1011.5 |
| 20260906044502 | 72 | 200 | 0.0 | 0.0 | 0.00 | 0.43 | 0.00 | 99 | 1011.6 |
| 20260906044004 | 72 | 200 | 0.0 | 0.0 | 0.00 | 0.43 | 0.00 | 99 | 1011.6 |
| 20260906043502 | 73 | 200 | 0.0 | 0.0 | 0.00 | 0.43 | 0.00 | 99 | 1011.6 |
| 20260906043003 | 73 | 200 | 0.0 | 0.0 | 0.00 | 0.43 | 0.00 | 99 | 1011.5 |
| 20260906042503 | 73 | 200 | 0.0 | 0.0 | 0.00 | 0.43 | 0.00 | 99 | 1011.5 |
| 20260906042003 | 73 | 200 | 0.0 | 0.0 | 0.00 | 0.43 | 0.00 | 99 | 1011.5 |
| 20260906041502 | 73 | 200 | 0.0 | 0.0 | 0.00 | 0.43 | 0.00 | 99 | 1011.6 |
| 20260906040503 | 73 | 200 | 0.0 | 0.0 | 0.00 | 0.43 | 0.00 | 99 | 1011.7 |
| 20260906040003 | 73 | 200 | 0.0 | 0.0 | 0.00 | 0.43 | 0.00 | 99 | 1011.6 |
| 20260906035503 | 73 | 200 | 0.0 | 1.0 | 0.00 | 0.43 | 0.27 | 99 | 1011.5 |
| 20260906035003 | 73 | 175 | 0.0 | 1.0 | 0.00 | 0.43 | 0.27 | 99 | 1011.6 |
| 20260906034502 | 73 | 92 | 0.0 | 0.0 | 0.00 | 0.43 | 0.27 | 99 | 1011.7 |
| 20260906034003 | 73 | 129 | 0.0 | 0.0 | 0.00 | 0.43 | 0.27 | 99 | 1011.7 |
| 20260906033503 | 73 | 142 | 0.0 | 0.0 | 0.00 | 0.43 | 0.27 | 99 | 1011.7 |
| 20260906033003 | 73 | 150 | 0.0 | 0.0 | 0.00 | 0.43 | 0.27 | 99 | 1011.8 |
| 20260906032503 | 73 | 174 | 0.0 | 1.0 | 0.00 | 0.43 | 0.27 | 99 | 1011.8 |
| 20260906032004 | 73 | 183 | 0.0 | 1.0 | 0.00 | 0.43 | 0.27 | 99 | 1011.9 |
| 20260906031003 | 73 | 58 | 0.0 | 0.0 | 0.00 | 0.43 | 0.27 | 99 | 1011.9 |
| 20260906030503 | 73 | 58 | 0.0 | 0.0 | 0.00 | 0.43 | 0.27 | 99 | 1011.9 |
| 20260906025003 | 73 | 58 | 0.0 | 1.0 | 0.00 | 0.43 | 0.27 | 99 | 1011.7 |
| 20260906024503 | 73 | 287 | 0.0 | 0.0 | 0.00 | 0.43 | 0.27 | 99 | 1011.8 |
| 20260906024003 | 74 | 284 | 0.0 | 0.0 | 0.00 | 0.43 | 0.27 | 99 | 1011.8 |
| 20260906023502 | 74 | 284 | 0.0 | 0.0 | 0.00 | 0.43 | 0.27 | 99 | 1011.8 |
| 20260906023002 | 74 | 355 | 0.0 | 1.0 | 0.00 | 0.43 | 0.27 | 99 | 1011.9 |
| 20260906022502 | 74 | 92 | 1.0 | 1.0 | 0.00 | 0.43 | 0.27 | 99 | 1011.8 |
| 20260906021502 | 74 | 87 | 0.0 | 0.0 | 0.00 | 0.43 | 0.27 | 99 | 1011.8 |
| 20260906021003 | 74 | 88 | 0.0 | 0.0 | 0.00 | 0.43 | 0.27 | 99 | 1011.8 |
| 20260906020503 | 74 | 91 | 0.0 | 0.0 | 0.00 | 0.43 | 0.27 | 99 | 1011.8 |
| 20260906020002 | 74 | 88 | 0.0 | 1.0 | 0.00 | 0.43 | 0.27 | 99 | 1011.8 |
| 20260906015504 | 74 | 148 | 0.0 | 0.0 | 0.00 | 0.43 | 0.27 | 99 | 1011.8 |
| 20260906014503 | 74 | 148 | 0.0 | 1.0 | 0.00 | 0.43 | 0.27 | 99 | 1011.7 |
| 20260906013003 | 74 | 51 | 0.0 | 0.0 | 0.00 | 0.43 | 0.27 | 99 | 1011.7 |
| 20260906012503 | 74 | 51 | 0.0 | 0.0 | 0.00 | 0.43 | 0.27 | 99 | 1011.6 |
| 20260906012003 | 74 | 39 | 0.0 | 1.0 | 0.00 | 0.43 | 0.27 | 99 | 1011.5 |
| 20260906011003 | 75 | 60 | 0.0 | 0.0 | 0.00 | 0.43 | 0.27 | 99 | 1011.6 |
| 20260906010003 | 75 | 60 | 0.0 | 0.0 | 0.00 | 0.43 | 0.27 | 99 | 1011.5 |
| 20260906005002 | 75 | 151 | 0.0 | 0.0 | 0.00 | 0.43 | 0.27 | 99 | 1011.4 |
| 20260906004503 | 75 | 136 | 0.0 | 0.0 | 0.00 | 0.43 | 0.27 | 99 | 1011.3 |
| 20260906004003 | 75 | 136 | 0.0 | 1.0 | 0.00 | 0.43 | 0.27 | 99 | 1011.3 |
| 20260906003503 | 75 | 83 | 0.0 | 0.0 | 0.00 | 0.43 | 0.27 | 99 | 1011.4 |
| 20260906003003 | 75 | 83 | 0.0 | 1.0 | 0.00 | 0.43 | 0.27 | 99 | 1011.3 |
| 20260906002003 | 75 | 189 | 0.0 | 0.0 | 0.00 | 0.43 | 0.27 | 98 | 1011.0 |
| 20260906001503 | 75 | 66 | 0.0 | 0.0 | 0.00 | 0.43 | 0.27 | 98 | 1010.9 |
| 20260906000504 | 75 | 66 | 0.0 | 1.0 | 0.00 | 0.43 | 0.27 | 98 | 1010.6 |
| 20260906000003 | 75 | 314 | 0.0 | 0.0 | 0.00 | 0.43 | 0.27 | 98 | 1010.5 |
| 20260905235502 | 75 | 314 | 0.0 | 0.0 | 0.00 | 0.43 | 0.27 | 98 | 1010.4 |
| 20260905234503 | 75 | 314 | 0.0 | 0.0 | 0.00 | 0.43 | 0.27 | 98 | 1010.5 |
| 20260905234003 | 75 | 314 | 0.0 | 0.0 | 0.00 | 0.43 | 0.27 | 98 | 1010.5 |
| 20260905233504 | 75 | 51 | 0.0 | 0.0 | 0.00 | 0.43 | 0.27 | 98 | 1010.4 |
| 20260905233003 | 75 | 223 | 0.0 | 1.0 | 0.00 | 0.43 | 0.27 | 98 | 1010.4 |
| 20260905232503 | 75 | 278 | 0.0 | 0.0 | 0.00 | 0.43 | 0.27 | 98 | 1010.4 |
| 20260905232003 | 75 | 287 | 0.0 | 0.0 | 0.00 | 0.43 | 0.27 | 98 | 1010.4 |
| 20260905231502 | 75 | 53 | 0.0 | 1.0 | 0.00 | 0.43 | 0.27 | 98 | 1010.3 |
| 20260905231003 | 75 | 108 | 0.0 | 1.0 | 0.00 | 0.43 | 0.27 | 98 | 1010.2 |
| 20260905230503 | 75 | 110 | 0.0 | 0.0 | 0.00 | 0.43 | 0.27 | 98 | 1010.0 |
| 20260905230003 | 75 | 110 | 0.0 | 1.0 | 0.00 | 0.43 | 0.27 | 98 | 1009.9 |
| 20260905225503 | 75 | 56 | 0.0 | 1.0 | 0.00 | 0.43 | 0.27 | 98 | 1009.8 |
| 20260905225003 | 75 | 25 | 0.0 | 1.0 | 0.00 | 0.43 | 0.27 | 98 | 1009.8 |
| 20260905224502 | 75 | 240 | 0.0 | 0.0 | 0.00 | 0.43 | 0.27 | 98 | 1009.7 |
| 20260905224003 | 75 | 240 | 0.0 | 0.0 | 0.00 | 0.43 | 0.27 | 98 | 1009.8 |
| 20260905223503 | 75 | 223 | 0.0 | 0.0 | 0.00 | 0.43 | 0.27 | 98 | 1009.9 |
| 20260905223003 | 75 | 57 | 0.0 | 0.0 | 0.00 | 0.43 | 0.27 | 98 | 1010.0 |
| 20260905222504 | 75 | 40 | 0.0 | 0.0 | 0.00 | 0.43 | 0.27 | 98 | 1010.0 |
| 20260905222002 | 75 | 37 | 1.0 | 1.0 | 0.00 | 0.43 | 0.27 | 98 | 1010.0 |
| 20260905221503 | 75 | 165 | 0.0 | 0.0 | 0.00 | 0.43 | 0.27 | 98 | 1010.0 |
| 20260905221003 | 75 | 165 | 0.0 | 1.0 | 0.00 | 0.43 | 0.27 | 98 | 1010.0 |
| 20260905220504 | 74 | 153 | 0.0 | 0.0 | 0.00 | 0.43 | 0.27 | 98 | 1010.1 |
| 20260905215503 | 74 | 158 | 0.0 | 0.0 | 0.00 | 0.43 | 0.27 | 98 | 1010.0 |
| 20260905215003 | 74 | 158 | 0.0 | 0.0 | 0.00 | 0.43 | 0.27 | 98 | 1010.0 |
| 20260905214503 | 74 | 61 | 0.0 | 1.0 | 0.00 | 0.43 | 0.27 | 98 | 1010.0 |
| 20260905214003 | 74 | 35 | 0.0 | 1.0 | 0.00 | 0.43 | 0.27 | 98 | 1010.0 |
| 20260905213502 | 74 | 101 | 0.0 | 0.0 | 0.00 | 0.43 | 0.27 | 98 | 1009.8 |
| 20260905213003 | 74 | 101 | 0.0 | 0.0 | 0.00 | 0.43 | 0.27 | 98 | 1009.6 |
| 20260905212003 | 74 | 101 | 0.0 | 0.0 | 0.00 | 0.43 | 0.27 | 98 | 1009.7 |
| 20260905211503 | 74 | 101 | 0.0 | 1.0 | 0.00 | 0.43 | 0.27 | 98 | 1009.6 |
| 20260905211003 | 73 | 347 | 0.0 | 1.0 | 0.01 | 0.43 | 0.27 | 98 | 1009.5 |
| 20260905210503 | 73 | 195 | 0.0 | 0.0 | 0.01 | 0.43 | 0.27 | 98 | 1009.5 |
| 20260905210003 | 73 | 154 | 1.0 | 1.0 | 0.01 | 0.43 | 0.27 | 98 | 1009.5 |
| 20260905205504 | 73 | 320 | 1.0 | 2.0 | 0.02 | 0.43 | 0.27 | 98 | 1009.7 |
| 20260905205004 | 73 | 279 | 1.0 | 1.0 | 0.02 | 0.43 | 0.27 | 98 | 1009.8 |
| 20260905204503 | 73 | 57 | 0.0 | 1.0 | 0.02 | 0.43 | 0.27 | 98 | 1009.9 |
| 20260905204003 | 73 | 59 | 0.0 | 1.0 | 0.03 | 0.43 | 0.27 | 98 | 1009.9 |
| 20260905203504 | 73 | 46 | 1.0 | 2.0 | 0.08 | 0.43 | 0.27 | 98 | 1009.8 |
| 20260905203003 | 73 | 158 | 0.0 | 1.0 | 0.09 | 0.43 | 0.27 | 98 | 1009.6 |
| 20260905202502 | 72 | 150 | 0.0 | 1.0 | 0.12 | 0.43 | 0.27 | 98 | 1009.4 |
| 20260905202003 | 72 | 149 | 0.0 | 1.0 | 0.13 | 0.42 | 0.26 | 97 | 1009.5 |
| 20260905201503 | 72 | 19 | 0.0 | 2.0 | 0.14 | 0.42 | 0.26 | 97 | 1009.5 |
| 20260905201003 | 72 | 27 | 1.0 | 2.0 | 0.10 | 0.42 | 0.26 | 97 | 1009.8 |
| 20260905200003 | 72 | 302 | 1.0 | 1.0 | 0.25 | 0.41 | 0.25 | 96 | 1010.1 |
| 20260905195503 | 72 | 353 | 0.0 | 1.0 | 0.25 | 0.41 | 0.25 | 96 | 1010.2 |
| 20260905195004 | 72 | 93 | 0.0 | 1.0 | 0.25 | 0.41 | 0.25 | 96 | 1010.3 |
| 20260905194503 | 72 | 72 | 0.0 | 0.0 | 0.25 | 0.41 | 0.25 | 95 | 1010.4 |
| 20260905193503 | 72 | 56 | 1.0 | 2.0 | 0.19 | 0.35 | 0.19 | 93 | 1010.8 |
| 20260905193003 | 73 | 288 | 1.0 | 3.0 | 0.18 | 0.34 | 0.18 | 93 | 1011.1 |
| 20260905192502 | 74 | 349 | 2.0 | 3.0 | 0.31 | 0.31 | 0.31 | 93 | 1011.4 |
| 20260905192003 | 75 | 306 | 3.0 | 8.0 | 0.30 | 0.30 | 0.30 | 92 | 1011.4 |
| 20260905191504 | 78 | 178 | 2.0 | 3.0 | 0.29 | 0.29 | 0.29 | 90 | 1010.9 |
| 20260905190503 | 88 | 353 | 3.0 | 8.0 | 0.05 | 0.05 | 0.05 | 74 | 1011.2 |
| 20260905185502 | 95 | 307 | 2.0 | 7.0 | 0.00 | 0.00 | 0.00 | 55 | 1009.8 |
| 20260905185003 | 96 | 328 | 0.0 | 2.0 | 0.00 | 0.00 | 0.00 | 49 | 1009.2 |
| 20260905184503 | 96 | 39 | 1.0 | 1.0 | 0.00 | 0.00 | 0.00 | 48 | 1008.9 |
| 20260905184003 | 96 | 50 | 1.0 | 2.0 | 0.00 | 0.00 | 0.00 | 51 | 1009.1 |
| 20260905183503 | 96 | 226 | 0.0 | 3.0 | 0.00 | 0.00 | 0.00 | 51 | 1009.1 |
| 20260905183003 | 96 | 222 | 2.0 | 3.0 | 0.00 | 0.00 | 0.00 | 50 | 1009.0 |
| 20260905182003 | 96 | 3 | 1.0 | 2.0 | 0.00 | 0.00 | 0.00 | 50 | 1009.2 |
| 20260905180503 | 95 | 224 | 1.0 | 3.0 | 0.00 | 0.00 | 0.00 | 52 | 1009.7 |
| 20260905180003 | 95 | 341 | 1.0 | 2.0 | 0.00 | 0.00 | 0.00 | 51 | 1009.8 |
| 20260905175503 | 96 | 0 | 1.0 | 2.0 | 0.00 | 0.00 | 0.00 | 52 | 1009.9 |
| 20260905175003 | 95 | 310 | 1.0 | 2.0 | 0.00 | 0.00 | 0.00 | 52 | 1010.1 |
| 20260905174503 | 95 | 92 | 1.0 | 2.0 | 0.00 | 0.00 | 0.00 | 53 | 1010.3 |
| 20260905174003 | 95 | 42 | 2.0 | 3.0 | 0.00 | 0.00 | 0.00 | 53 | 1010.4 |
| 20260905173502 | 95 | 330 | 1.0 | 2.0 | 0.00 | 0.00 | 0.00 | 52 | 1010.6 |
| 20260905172503 | 94 | 92 | 1.0 | 2.0 | 0.00 | 0.00 | 0.00 | 55 | 1010.8 |
| 20260905172003 | 93 | 222 | 1.0 | 2.0 | 0.00 | 0.00 | 0.00 | 55 | 1010.9 |
| 20260905171503 | 93 | 334 | 1.0 | 2.0 | 0.00 | 0.00 | 0.00 | 57 | 1010.9 |
| 20260905171004 | 93 | 310 | 1.0 | 3.0 | 0.00 | 0.00 | 0.00 | 57 | 1011.0 |
| 20260905170503 | 94 | 258 | 1.0 | 3.0 | 0.00 | 0.00 | 0.00 | 55 | 1011.0 |
| 20260905170003 | 94 | 20 | 1.0 | 5.0 | 0.00 | 0.00 | 0.00 | 54 | 1011.0 |
| 20260905165503 | 95 | 314 | 1.0 | 3.0 | 0.00 | 0.00 | 0.00 | 56 | 1011.0 |
| 20260905165003 | 95 | 279 | 1.0 | 3.0 | 0.00 | 0.00 | 0.00 | 53 | 1011.0 |
| 20260905164503 | 95 | 241 | 1.0 | 3.0 | 0.00 | 0.00 | 0.00 | 52 | 1011.1 |
| 20260905164003 | 94 | 304 | 1.0 | 2.0 | 0.00 | 0.00 | 0.00 | 54 | 1011.2 |
| 20260905163503 | 94 | 274 | 1.0 | 3.0 | 0.00 | 0.00 | 0.00 | 52 | 1011.2 |
| 20260905163003 | 94 | 16 | 2.0 | 3.0 | 0.00 | 0.00 | 0.00 | 53 | 1011.2 |
| 20260905162004 | 95 | 25 | 1.0 | 2.0 | 0.00 | 0.00 | 0.00 | 53 | 1011.3 |
| 20260905161503 | 94 | 349 | 1.0 | 2.0 | 0.00 | 0.00 | 0.00 | 53 | 1011.4 |
| 20260905161003 | 94 | 340 | 0.0 | 2.0 | 0.00 | 0.00 | 0.00 | 54 | 1011.4 |
| 20260905160503 | 93 | 334 | 1.0 | 3.0 | 0.00 | 0.00 | 0.00 | 55 | 1011.5 |
| 20260905155003 | 93 | 145 | 1.0 | 5.0 | 0.00 | 0.00 | 0.00 | 57 | 1011.8 |
| 20260905154003 | 92 | 43 | 1.0 | 2.0 | 0.00 | 0.00 | 0.00 | 59 | 1011.9 |
| 20260905153504 | 91 | 331 | 1.0 | 2.0 | 0.00 | 0.00 | 0.00 | 59 | 1011.9 |
| 20260905153003 | 91 | 54 | 1.0 | 2.0 | 0.00 | 0.00 | 0.00 | 61 | 1012.0 |